Upstream stations:
Downstream station:
SHEF ID: BVRO2 Beaver River at Beaver, OK
STATION TYPE:
Regulating: Stage = 9.00, Flow = 2101
PRECIP STAGE RIV-FLOW VOLTAGE BAT-LOAD
in ft cfs volt volt
Ccp-Rev Ccp-Rev Ccp-Rev Ccp-Rev Ccp-Rev
(US/Central)
03/22 00:00 0.07 2.29 0 ---- 12.58
03/22 01:00 0.08 2.31 0 ---- 12.55
03/22 02:00 0.06 2.34 0 ---- 12.53
03/22 03:00 0.05 2.35 0 ---- 12.51
03/22 04:00 0.04 2.37 0 ---- 12.49
03/22 05:00 0.01 2.38 0 ---- 12.48
03/22 06:00 0.01 2.37 0 ---- 12.48
03/22 07:00 0.00 2.34 0 ---- 12.47
03/22 08:00 0.00 2.32 0 ---- 12.47
03/22 09:00 0.00 2.30 0 ---- 12.47
03/22 10:00 0.00 2.29 0 ---- 12.96
03/22 11:00 0.00 2.28 0 ---- 13.14
03/22 12:00 0.00 2.27 0 ---- 13.08
03/22 13:00 0.00 2.27 0 ---- 13.03
03/22 14:00 0.00 2.26 0 ---- 13.01
03/22 15:00 0.00 2.25 0 ---- 12.99
03/22 16:00 0.00 2.25 0 ---- 12.99
03/22 17:00 0.00 2.24 0 ---- 12.94
03/22 18:00 0.00 2.24 0 ---- 12.93
03/22 19:00 0.00 2.23 0 ---- 12.92
03/22 20:00 0.00 2.23 0 ---- 12.86
03/22 21:00 0.00 2.23 0 ---- 12.76
03/22 22:00 0.00 2.23 0 ---- 12.70
03/22 23:00 0.00 2.23 0 ---- 12.67